AFL1422 URSS-UGSB

Flight info

Callsign AFL1422
Flight time 0h 29m
Altitude 21000
Route TABAN1S TABAN B147 BANUT/N0372F210 DCT SOSED
Aircraft A20N/M-SDE2E3FGHIRWXY/LB1

Departure

Time 2026-05-06 18:54
Airport Sochi International Airport (URSS)

Arrival

Time 2026-05-06 19:24
Airport Alexander Kartveli Batumi International Airport (UGSB)
Time Latitude Longitude Altitude Speed Heading
2026-05-06 18:50 43.44989 39.95312 64 ft 0 kts 111°
2026-05-06 18:51 43.44989 39.95315 64 ft 0 kts 113°
2026-05-06 18:51 43.44982 39.95329 64 ft 2 kts 129°
2026-05-06 18:52 43.44963 39.95350 65 ft 4 kts 148°
2026-05-06 18:52 43.44926 39.95365 65 ft 6 kts 181°
2026-05-06 18:52 43.44885 39.95330 64 ft 8 kts 237°
2026-05-06 18:52 43.44880 39.95319 64 ft 0 kts 242°
2026-05-06 18:53 43.44880 39.95318 64 ft 0 kts 242°
2026-05-06 18:54 43.44780 39.95027 58 ft 77 kts 244°
2026-05-06 18:54 43.44438 39.94024 47 ft 151 kts 245°
2026-05-06 18:54 43.43928 39.92535 347 ft 183 kts 245°
2026-05-06 18:54 43.43408 39.90980 695 ft 186 kts 248°
2026-05-06 18:55 43.42988 39.89132 825 ft 216 kts 258°
2026-05-06 18:55 43.42725 39.86979 1011 ft 242 kts 260°
2026-05-06 18:55 43.42399 39.84647 1189 ft 248 kts 258°
2026-05-06 18:55 43.42041 39.82299 1669 ft 258 kts 258°
2026-05-06 18:56 43.41666 39.79929 2783 ft 255 kts 257°
2026-05-06 18:56 43.41286 39.77580 3783 ft 256 kts 257°
2026-05-06 18:56 43.40897 39.75198 4709 ft 260 kts 257°
2026-05-06 18:56 43.40503 39.72803 5629 ft 263 kts 257°
2026-05-06 18:57 43.40100 39.70358 6545 ft 266 kts 257°
2026-05-06 18:57 43.39688 39.67863 7451 ft 270 kts 256°
2026-05-06 18:57 43.39171 39.65400 8315 ft 273 kts 243°
2026-05-06 18:57 43.38566 39.64153 8791 ft 275 kts 226°
2026-05-06 18:58 43.34599 39.62167 10641 ft 284 kts 184°
2026-05-06 18:59 43.26743 39.61668 12059 ft 347 kts 184°
2026-05-06 18:59 43.24308 39.61485 12551 ft 359 kts 184°
2026-05-06 18:59 43.21826 39.61296 13319 ft 361 kts 184°
2026-05-06 19:00 43.19326 39.61118 14104 ft 362 kts 183°
2026-05-06 19:00 43.16807 39.61017 14845 ft 365 kts 182°
2026-05-06 19:00 43.14258 39.60949 15566 ft 367 kts 182°
2026-05-06 19:00 43.11698 39.60899 16262 ft 369 kts 182°
2026-05-06 19:01 43.09136 39.60862 16937 ft 372 kts 182°
2026-05-06 19:01 43.06550 39.60839 17598 ft 374 kts 182°
2026-05-06 19:01 43.03962 39.60831 18230 ft 376 kts 182°
2026-05-06 19:01 43.01342 39.60869 18836 ft 380 kts 179°
2026-05-06 19:02 42.98769 39.61772 19320 ft 394 kts 157°
2026-05-06 19:02 42.96530 39.64017 19867 ft 407 kts 138°
2026-05-06 19:02 42.94687 39.66964 20432 ft 412 kts 134°
2026-05-06 19:02 42.92876 39.70015 20906 ft 417 kts 134°
2026-05-06 19:03 42.91048 39.73079 21138 ft 420 kts 134°
2026-05-06 19:03 42.89180 39.76173 21153 ft 420 kts 134°
2026-05-06 19:03 42.87306 39.79230 21158 ft 421 kts 134°
2026-05-06 19:03 42.85415 39.82295 21161 ft 420 kts 134°
2026-05-06 19:04 42.83548 39.85315 21163 ft 421 kts 134°
2026-05-06 19:04 42.81649 39.88383 21163 ft 421 kts 134°
2026-05-06 19:04 42.79770 39.91415 21164 ft 420 kts 134°
2026-05-06 19:04 42.77882 39.94461 21164 ft 420 kts 134°
2026-05-06 19:05 42.76016 39.97465 21164 ft 420 kts 134°
2026-05-06 19:05 42.74119 40.00518 21164 ft 420 kts 134°
2026-05-06 19:05 42.72216 40.03579 21164 ft 420 kts 134°
2026-05-06 19:05 42.70335 40.06599 21163 ft 420 kts 134°
2026-05-06 19:06 42.68445 40.09630 21164 ft 420 kts 134°
2026-05-06 19:06 42.66540 40.12683 21164 ft 420 kts 134°
2026-05-06 19:06 42.64657 40.15699 21164 ft 420 kts 134°
2026-05-06 19:06 42.62782 40.18698 21163 ft 420 kts 134°
2026-05-06 19:07 42.60892 40.21719 21163 ft 420 kts 134°
2026-05-06 19:07 42.58991 40.24754 21164 ft 420 kts 134°
2026-05-06 19:07 42.57093 40.27781 21164 ft 420 kts 134°
2026-05-06 19:07 42.55207 40.30783 21164 ft 421 kts 134°
2026-05-06 19:08 42.53305 40.33812 21164 ft 420 kts 134°
2026-05-06 19:08 42.52045 40.35815 21164 ft 420 kts 134°
2026-05-06 19:09 42.43527 40.49326 21164 ft 420 kts 134°
2026-05-06 19:09 42.41608 40.52360 21164 ft 420 kts 134°
2026-05-06 19:09 42.39703 40.55368 21164 ft 420 kts 134°
2026-05-06 19:10 42.37800 40.58373 21164 ft 420 kts 134°
2026-05-06 19:10 42.35897 40.61373 21165 ft 420 kts 134°
2026-05-06 19:10 42.34017 40.64335 21009 ft 417 kts 134°
2026-05-06 19:10 42.32118 40.67330 20210 ft 421 kts 135°
2026-05-06 19:11 42.30217 40.70326 19285 ft 425 kts 134°
2026-05-06 19:11 42.28296 40.73352 18620 ft 421 kts 134°
2026-05-06 19:11 42.26396 40.76342 18020 ft 416 kts 134°
2026-05-06 19:11 42.24528 40.79275 17403 ft 411 kts 134°
2026-05-06 19:12 42.22689 40.82157 16780 ft 407 kts 134°
2026-05-06 19:12 42.20854 40.85026 16157 ft 403 kts 133°
2026-05-06 19:12 42.19025 40.87884 15531 ft 399 kts 133°
2026-05-06 19:12 42.17233 40.90681 15036 ft 392 kts 133°
2026-05-06 19:13 42.15470 40.93431 14532 ft 386 kts 133°
2026-05-06 19:13 42.13723 40.96150 13851 ft 385 kts 133°
2026-05-06 19:13 42.11963 40.98877 13170 ft 384 kts 134°
2026-05-06 19:13 42.10067 41.01313 12500 ft 381 kts 142°
2026-05-06 19:14 42.07978 41.03468 11827 ft 379 kts 144°
2026-05-06 19:14 42.05853 41.05563 11148 ft 378 kts 145°
2026-05-06 19:14 42.03743 41.07634 10471 ft 376 kts 144°
2026-05-06 19:14 42.01638 41.09705 9794 ft 375 kts 144°
2026-05-06 19:15 41.99543 41.11774 9115 ft 373 kts 144°
2026-05-06 19:15 41.97487 41.13807 8447 ft 371 kts 144°
2026-05-06 19:15 41.95439 41.15834 7949 ft 363 kts 144°
2026-05-06 19:15 41.93398 41.17857 7273 ft 361 kts 144°
2026-05-06 19:16 41.91443 41.19792 6603 ft 344 kts 144°
2026-05-06 19:16 41.89574 41.21643 5923 ft 325 kts 144°
2026-05-06 19:16 41.87781 41.23408 5324 ft 307 kts 144°
2026-05-06 19:16 41.86141 41.25022 5033 ft 283 kts 144°
2026-05-06 19:17 41.84612 41.26528 5000 ft 263 kts 143°
2026-05-06 19:17 41.83197 41.27924 4991 ft 247 kts 143°
2026-05-06 19:17 41.81842 41.29259 4989 ft 236 kts 143°
2026-05-06 19:17 41.80530 41.30553 4919 ft 238 kts 144°
2026-05-06 19:19 41.72722 41.41839 1986 ft 200 kts 130°
2026-05-06 19:20 41.68432 41.48542 2333 ft 160 kts 132°
2026-05-06 19:21 41.67748 41.49603 2174 ft 145 kts 130°
2026-05-06 19:21 41.67097 41.50608 1809 ft 142 kts 129°
2026-05-06 19:21 41.66463 41.51618 1431 ft 140 kts 129°
2026-05-06 19:21 41.65834 41.52590 1166 ft 135 kts 130°
2026-05-06 19:22 41.65207 41.53539 1057 ft 137 kts 131°
2026-05-06 19:22 41.64579 41.54480 870 ft 136 kts 130°
2026-05-06 19:22 41.63952 41.55438 674 ft 136 kts 130°
2026-05-06 19:22 41.63337 41.56393 494 ft 135 kts 130°
2026-05-06 19:23 41.62723 41.57342 349 ft 133 kts 131°
2026-05-06 19:23 41.62120 41.58249 187 ft 129 kts 130°
2026-05-06 19:23 41.61548 41.59126 22 ft 115 kts 130°
2026-05-06 19:23 41.61153 41.59729 23 ft 56 kts 131°
2026-05-06 19:24 41.60956 41.60031 25 ft 39 kts 129°
2026-05-06 19:24 41.60827 41.60239 26 ft 26 kts 131°
2026-05-06 19:24 41.60711 41.60413 28 ft 23 kts 130°
2026-05-06 19:24 41.60607 41.60575 28 ft 22 kts 130°
2026-05-06 19:25 41.60536 41.60684 29 ft 0 kts 130°
2026-05-06 19:26 41.60532 41.60690 29 ft 2 kts 131°
2026-05-06 19:26 41.60515 41.60715 29 ft 5 kts 130°
2026-05-06 19:27 41.60492 41.60764 30 ft 7 kts 107°
2026-05-06 19:27 41.60496 41.60837 32 ft 8 kts 76°
2026-05-06 19:27 41.60513 41.60930 32 ft 11 kts 76°
2026-05-06 19:27 41.60518 41.60959 32 ft 3 kts 75°
2026-05-06 19:28 41.60525 41.60993 32 ft 4 kts 71°
2026-05-06 19:28 41.60539 41.61029 32 ft 4 kts 57°
2026-05-06 19:28 41.60555 41.61056 33 ft 3 kts 48°
2026-05-06 19:28 41.60571 41.61079 33 ft 3 kts 46°
2026-05-06 19:29 41.60582 41.61095 33 ft 0 kts 46°